Tracking 25734 objects as of 28-May-2022
HD Live streaming from Space Station
objects crossing your sky now

COSMOS 1275 DEB

Track COSMOS 1275 DEB now!
10-day predictions


NORAD ID: 12671
Int'l Code: 1981-053AB
Perigee: 875.1 km
Apogee: 899.0 km
Inclination: 82.9 °
Period: 102.6 minutes
Semi major axis: 7258 km
RCS: 0.0812 m2 (small)
Launch date: June 4, 1981
Source: Commonwealth of Independent States (former USSR) (CIS)
Launch site: PLESETSK MISSILE AND SPACE COMPLEX (PKMTR)

Note: This is SATELLITE DEBRIS
aabbcc
Your satellite tracking list
Your tracking list is empty




NASA's NSSDC Master Catalog

Two Line Element Set (TLE):
1 12671U 81053AB  22147.82109666  .00001201  00000-0  74890-3 0  9993
2 12671  82.9128 273.6702 0016463 311.0568  48.9181 14.04015788 71445
Source of the keplerian elements: AFSPC